Location: Neuvy Saint Sepulchre
(46.5953°N, 1.8122°E)
Time: 22:20:14
(UTC+02:00)

ISS - Pass Details

Date: 26 March 2019
Orbit: 408 x 410 km, 51.6° (Epoch: 22 April)

Event Time Altitude Azimuth Distance (km) Brightness Sun altitude
Rises 20:57:24 0° 269° (W) 2,334 1.2 -18.1°
Reaches altitude 10° 20:59:34 10° 278° (W) 1,474 0.1 -18.5°
Maximum altitude 21:02:42 38° 348° (NNW) 640 -2.6 -18.9°
Enters shadow 21:03:47 29° 32° (NNE) 792 -2.5 -19.1°
